Regional Weather Roundup
Issued by NWS

Home | Current Version | Previous Version | Graphics & Text | Print | Product List | Glossary On
Versions: 1 2 3 4 5 6 7 8 9 10 11 12 13 14 15 16 17 18 19 20 21 22 23 24 25 26 27 28 29 30 31 32 33 34 35 36 37 38 39 40 41 42 43 44 45 46 47 48 49 50
000
ASUS45 KABQ 232001
RWRNM
NEW MEXICO REGIONAL WEATHER ROUNDUP
NATIONAL WEATHER SERVICE ALBUQUERQUE NM
200 PM MDT MON OCT 23 2017

NOTE: "FAIR" MEANS FEW OR NO CLOUDS BELOW 12,000 FEET AGL WITH NO
       SIGNIFICANT WEATHER OR OBSTRUCTIONS TO VISION.

      THIS PRODUCT IS RELEASED AS TWO VERSIONS.  ONE VERSION NEAR
      THE TOP OF THE HOUR CONTAINING PRELIMINARY DATA FROM ALBUQUERQUE
      AND OTHER STATIONS.  A FINAL VERSION WITH ADDITIONAL DATA IS
      ISSUED ABOUT 10 MINUTES AFTER THE HOUR.

NMZ501-503-504-510>518-232100-
NORTHWEST PLATEAU/NORTHCENTRAL MOUNTAINS

CITY           SKY/WX    TMP DP  RH WIND       PRES   REMARKS
FARMINGTON     FAIR      71  23  16 W20G29    30.37F
LOS ALAMOS     FAIR      64  24  21 E7        30.43F
SANTA FE       FAIR      69  25  19 N14       30.38F
TAOS           FAIR      66  26  22 SW3       30.43F
ANGEL FIRE     FAIR      63  24  22 W12       30.46F

$$
NMZ402-403-502-505>509-232100-
WESTCENTRAL MOUNTAINS/SOUTHWEST MOUNTAINS

CITY           SKY/WX    TMP DP  RH WIND       PRES   REMARKS
GALLUP         FAIR      74  25  16 NW13      30.45F
GRANTS         FAIR      71  23  16 N21G26    30.46F
SILVER CITY    PTSUNNY   83  12   7 CALM      30.31F

$$
NMZ407-409-411-412-232100-
SOUTHERN DESERTS

CITY           SKY/WX    TMP DP  RH WIND       PRES   REMARKS
DEMING         FAIR      83  21  10 W9        30.26F
LAS CRUCES     FAIR      82  20  10 N6        30.27F
HOLLOMAN AFB   FAIR      81  27  13 N14G24    30.26F
ALAMOGORDO     FAIR      81  27  13 N20G25    30.23F
T OR C         FAIR      77  25  14 E8        30.29F

$$
NMZ519>523-232100-
CENTRAL VALLEYS/CENTRAL HIGHLANDS

CITY           SKY/WX    TMP DP  RH WIND       PRES   REMARKS
ALBUQUERQUE    FAIR      73  25  16 N16G22    30.35F
DOUBLE EAGLE   MOSUNNY   72  27  18 NW17      30.39F
MORIARTY ARPT  FAIR      74  27  17 NW15      30.37S
CLINES CORNERS NOT AVBL
BELEN          FAIR      74  26  16 N10       30.33F
SOCORRO        FAIR      78  24  13 NE15      30.28F

$$
NMZ524>526-539-540-232100-
SOUTHCENTRAL MOUNTAINS

CITY           SKY/WX    TMP DP  RH WIND       PRES   REMARKS
RUIDOSO        FAIR      72  27  18 N9        30.40F

$$
NMZ527>531-232100-
NORTHEAST HIGHLANDS/NORTHEAST PLAINS

CITY           SKY/WX    TMP DP  RH WIND       PRES   REMARKS
LAS VEGAS      FAIR      69  30  23 SE8       30.37S
RATON          FAIR      67  31  26 E9        30.32F
CLAYTON        FAIR      60  33  36 NE17G28   30.34F

$$
NMZ532>537-232100-
EASTCENTRAL PLAINS

CITY           SKY/WX    TMP DP  RH WIND       PRES   REMARKS
SANTA ROSA     FAIR      73  32  22 E16       30.28S
TUCUMCARI      FAIR      71  35  26 E18G28    30.27F
CANNON AFB     NOT AVBL
CLOVIS AIRPORT   N/A     70  37  29 NE24      30.28R

$$
NMZ028-029-538-232100-
SOUTHEAST PLAINS

CITY           SKY/WX    TMP DP  RH WIND       PRES   REMARKS
ROSWELL        FAIR      81  34  18 NE15      30.19F
ARTESIA        FAIR      82  32  16 NE14G23   30.17F
CARLSBAD       FAIR      83  32  16 NW17      30.15F
HOBBS          SUNNY     84  32  15 NE17G24   30.16S


$$




USA.gov is the U.S. government's official web portal to all federal, state and local government web resources and services.